TimePDT,TemperatureF,Dew PointF,Humidity,Sea Level PressureIn,VisibilityMPH,Wind Direction,Wind SpeedMPH,Gust SpeedMPH,PrecipitationIn,Events,Conditions,WindDirDegrees,DateUTC
12:15 AM,57.2,46.4,67,30.00,10.0,West,11.5,-,N/A,,Clear,280,2013-07-12 07:15:00
12:35 AM,55.4,46.4,72,30.01,10.0,West,11.5,-,N/A,,Clear,280,2013-07-12 07:35:00
12:55 AM,55.4,46.4,72,30.01,10.0,West,11.5,-,N/A,,Clear,280,2013-07-12 07:55:00
1:15 AM,55.4,46.4,72,30.01,10.0,West,10.4,-,N/A,,Clear,280,2013-07-12 08:15:00
1:35 AM,53.6,46.4,77,30.01,10.0,West,10.4,-,N/A,,Clear,280,2013-07-12 08:35:00
1:55 AM,53.6,46.4,77,30.01,10.0,West,10.4,-,N/A,,Clear,280,2013-07-12 08:55:00
2:15 AM,53.6,46.4,77,30.01,10.0,West,10.4,-,N/A,,Clear,280,2013-07-12 09:15:00
2:35 AM,53.6,44.6,72,30.02,10.0,West,9.2,-,N/A,,Clear,280,2013-07-12 09:35:00
2:55 AM,53.6,44.6,72,30.02,10.0,WNW,8.1,-,N/A,,Clear,290,2013-07-12 09:55:00
3:15 AM,53.6,44.6,72,30.02,10.0,West,9.2,-,N/A,,Clear,280,2013-07-12 10:15:00
3:35 AM,53.6,44.6,72,30.02,10.0,WNW,9.2,-,N/A,,Clear,290,2013-07-12 10:35:00
3:55 AM,51.8,44.6,76,30.02,10.0,WNW,9.2,-,N/A,,Clear,290,2013-07-12 10:55:00
4:15 AM,51.8,44.6,76,30.03,10.0,WNW,6.9,-,N/A,,Clear,290,2013-07-12 11:15:00
4:35 AM,51.8,44.6,76,30.03,10.0,West,8.1,-,N/A,,Clear,280,2013-07-12 11:35:00
4:55 AM,51.8,44.6,76,30.03,10.0,WNW,8.1,-,N/A,,Clear,290,2013-07-12 11:55:00
5:15 AM,51.8,44.6,76,30.03,10.0,West,9.2,-,N/A,,Clear,280,2013-07-12 12:15:00
5:35 AM,50.0,44.6,82,30.03,10.0,West,8.1,-,N/A,,Clear,280,2013-07-12 12:35:00
5:55 AM,50.0,44.6,82,30.03,10.0,WNW,5.8,-,N/A,,Clear,290,2013-07-12 12:55:00
6:15 AM,50.0,44.6,82,30.03,10.0,West,5.8,-,N/A,,Clear,280,2013-07-12 13:15:00
6:35 AM,51.8,44.6,76,30.03,10.0,West,6.9,-,N/A,,Clear,280,2013-07-12 13:35:00
6:55 AM,51.8,46.4,82,30.03,10.0,West,6.9,-,N/A,,Clear,280,2013-07-12 13:55:00
7:15 AM,53.6,44.6,72,30.03,10.0,West,6.9,-,N/A,,Clear,280,2013-07-12 14:15:00
7:35 AM,55.4,46.4,72,30.04,10.0,West,5.8,-,N/A,,Clear,280,2013-07-12 14:35:00
7:55 AM,57.2,46.4,67,30.04,10.0,WNW,5.8,-,N/A,,Clear,290,2013-07-12 14:55:00
8:15 AM,59.0,44.6,59,30.04,10.0,WNW,8.1,-,N/A,,Clear,290,2013-07-12 15:15:00
8:35 AM,60.8,44.6,55,30.04,10.0,West,4.6,-,N/A,,Clear,280,2013-07-12 15:35:00
8:55 AM,60.8,46.4,59,30.04,10.0,NNW,3.5,-,N/A,,Clear,330,2013-07-12 15:55:00
9:15 AM,62.6,44.6,52,30.03,10.0,NE,4.6,-,N/A,,Clear,40,2013-07-12 16:15:00
9:35 AM,64.4,46.4,52,30.04,10.0,NNE,5.8,-,N/A,,Clear,20,2013-07-12 16:35:00
9:55 AM,66.2,44.6,46,30.04,10.0,NE,5.8,-,N/A,,Clear,40,2013-07-12 16:55:00
10:15 AM,66.2,46.4,49,30.04,10.0,WSW,5.8,-,N/A,,Clear,240,2013-07-12 17:15:00
10:35 AM,66.2,46.4,49,30.04,10.0,NNW,6.9,-,N/A,,Clear,340,2013-07-12 17:35:00
10:55 AM,68.0,46.4,46,30.03,10.0,North,3.5,-,N/A,,Clear,350,2013-07-12 17:55:00
11:15 AM,68.0,46.4,46,30.04,10.0,WNW,8.1,-,N/A,,Clear,290,2013-07-12 18:15:00
11:35 AM,69.8,46.4,43,30.04,10.0,WNW,5.8,-,N/A,,Clear,290,2013-07-12 18:35:00
11:55 AM,69.8,44.6,40,30.04,10.0,West,9.2,-,N/A,,Clear,270,2013-07-12 18:55:00
12:15 PM,71.6,46.4,41,30.04,10.0,West,4.6,-,N/A,,Clear,280,2013-07-12 19:15:00
12:35 PM,71.6,46.4,41,30.04,10.0,NNW,6.9,-,N/A,,Clear,330,2013-07-12 19:35:00
12:55 PM,73.4,46.4,38,30.03,10.0,WSW,6.9,16.1,N/A,,Clear,250,2013-07-12 19:55:00
1:15 PM,75.2,48.2,38,30.03,10.0,NNW,11.5,-,N/A,,Clear,330,2013-07-12 20:15:00
1:35 PM,73.4,44.6,36,30.03,10.0,NNW,8.1,-,N/A,,Clear,330,2013-07-12 20:35:00
1:55 PM,75.2,44.6,34,30.03,10.0,NW,5.8,-,N/A,,Clear,310,2013-07-12 20:55:00
2:15 PM,77.0,44.6,32,30.03,10.0,North,8.1,-,N/A,,Clear,350,2013-07-12 21:15:00
2:35 PM,78.8,44.6,30,30.03,10.0,West,12.7,-,N/A,,Clear,280,2013-07-12 21:35:00
2:55 PM,75.2,44.6,34,30.03,10.0,WNW,11.5,17.3,N/A,,Clear,300,2013-07-12 21:55:00
3:15 PM,75.2,42.8,31,30.02,10.0,NNW,12.7,16.1,N/A,,Clear,330,2013-07-12 22:15:00
3:35 PM,77.0,44.6,32,30.02,10.0,WNW,12.7,-,N/A,,Clear,300,2013-07-12 22:35:00
3:55 PM,77.0,41.0,28,30.02,10.0,West,11.5,-,N/A,,Clear,270,2013-07-12 22:55:00
4:15 PM,78.8,39.2,24,30.02,10.0,WNW,15.0,-,N/A,,Clear,300,2013-07-12 23:15:00
4:35 PM,78.8,39.2,24,30.02,10.0,WNW,13.8,17.3,N/A,,Clear,290,2013-07-12 23:35:00
4:55 PM,77.0,41.0,28,30.02,10.0,WNW,16.1,-,N/A,,Clear,290,2013-07-12 23:55:00
5:15 PM,77.0,42.8,29,30.02,10.0,WNW,12.7,18.4,N/A,,Clear,290,2013-07-13 00:15:00
5:35 PM,75.2,42.8,31,30.02,10.0,West,17.3,-,N/A,,Clear,270,2013-07-13 00:35:00
5:55 PM,75.2,42.8,31,30.02,10.0,West,18.4,-,N/A,,Clear,280,2013-07-13 00:55:00
6:15 PM,73.4,42.8,33,30.02,10.0,West,13.8,21.9,N/A,,Clear,280,2013-07-13 01:15:00
6:35 PM,73.4,42.8,33,30.02,10.0,WNW,18.4,24.2,N/A,,Clear,290,2013-07-13 01:35:00
6:55 PM,71.6,42.8,35,30.03,10.0,West,16.1,24.2,N/A,,Clear,280,2013-07-13 01:55:00
7:15 PM,69.8,42.8,38,30.03,10.0,West,18.4,-,N/A,,Clear,270,2013-07-13 02:15:00
7:35 PM,69.8,42.8,38,30.04,10.0,WNW,15.0,-,N/A,,Clear,290,2013-07-13 02:35:00
7:55 PM,66.2,44.6,46,30.04,10.0,West,15.0,24.2,N/A,,Clear,270,2013-07-13 02:55:00
8:15 PM,64.4,44.6,49,30.05,10.0,West,16.1,-,N/A,,Clear,270,2013-07-13 03:15:00
8:35 PM,62.6,44.6,52,30.05,10.0,West,15.0,-,N/A,,Clear,270,2013-07-13 03:35:00
8:55 PM,62.6,44.6,52,30.06,10.0,West,12.7,-,N/A,,Clear,280,2013-07-13 03:55:00
9:15 PM,60.8,44.6,55,30.07,10.0,West,11.5,-,N/A,,Clear,280,2013-07-13 04:15:00
9:35 PM,60.8,44.6,55,30.08,10.0,West,11.5,-,N/A,,Clear,280,2013-07-13 04:35:00
9:55 PM,59.0,46.4,63,30.08,10.0,WNW,12.7,-,N/A,,Clear,290,2013-07-13 04:55:00
10:15 PM,59.0,46.4,63,30.09,10.0,West,13.8,-,N/A,,Clear,280,2013-07-13 05:15:00
10:35 PM,57.2,46.4,67,30.09,10.0,West,12.7,-,N/A,,Clear,280,2013-07-13 05:35:00
10:55 PM,57.2,46.4,67,30.10,10.0,West,10.4,-,N/A,,Clear,280,2013-07-13 05:55:00
11:15 PM,57.2,46.4,67,30.10,10.0,West,12.7,-,N/A,,Clear,280,2013-07-13 06:15:00
11:35 PM,57.2,46.4,67,30.10,10.0,West,11.5,-,N/A,,Clear,280,2013-07-13 06:35:00
11:55 PM,55.4,46.4,72,30.11,10.0,West,11.5,-,N/A,,Clear,280,2013-07-13 06:55:00